Location: Monte Gallo
(43.5167°N, 13.4667°E)
Time: 21:54:44
(UTC+00:00)

Daily predictions for brighter satellites

Satellite Brightness Start Highest point End
(mag) Time Altitude Azimuth Time Altitude Azimuth Time Altitude Azimuth
Cosmos 1818 3.7 16:07:53 10° NW 16:13:22 84° SW 16:18:46 10° SSE
Cosmos 2233 Rocket 4.3 16:07:33 10° N 16:13:39 47° ENE 16:19:41 10° SSE
CORIOLIS 4.4 16:08:29 10° SE 16:13:40 50° ENE 16:18:54 10° N
AQUARIUS 4.3 16:11:06 10° SSE 16:15:27 52° ENE 16:19:50 10° N
ALOS 3.9 16:14:26 10° SSW 16:18:49 40° W 16:23:13 10° NNW
H-2A R/B 2.9 16:17:15 10° SSE 16:21:01 52° ENE 16:24:47 10° N
Feng Yun 1-1 Rocket 4.2 16:15:34 10° SSE 16:21:13 74° ENE 16:26:45 10° N
PSLV R/B 4.2 16:25:11 10° SW 16:27:20 24° SSE 16:29:28 10° ESE
SMAP 3.0 16:23:44 10° SSE 16:28:22 78° ENE 16:33:02 10° N
Cosmos 1943 Rocket 4.5 16:24:34 10° W 16:28:30 19° NW 16:32:28 10° N
YAOGAN 6 3.9 16:26:24 10° ESE 16:28:54 19° ENE 16:31:25 10° NNE
Meteor 2-3 Rocket 3.8 16:23:31 10° N 16:29:19 67° ENE 16:35:03 10° SSE
Cosmos 1238 Rocket 3.2 16:25:21 10° N 16:29:59 50° ENE 16:33:46 10° SSE
TSX-5 3.9 16:28:36 10° SSW 16:32:19 89° WNW 16:37:04 10° NNE
IRS-1C Rocket 4.3 16:27:12 10° SSE 16:32:29 80° WSW 16:37:48 10° NNW
Okean O Rocket 3.9 16:28:53 10° SSW 16:32:45 30° W 16:36:38 10° NW
Cosmos 1743 Rocket 3.5 16:28:45 10° N 16:33:07 74° E 16:37:28 10° SSE
Cosmos 2123 Rocket 4.2 16:27:23 10° SSW 16:33:36 78° W 16:39:50 10° N
Cosmos 1805 Rocket 4.3 16:29:56 10° NNE 16:33:46 29° ENE 16:37:36 10° SE
Meteor 2-10 Rocket 3.7 16:30:11 10° SSW 16:35:10 71° WNW 16:40:13 10° N
Genesis I 3.6 16:31:48 10° SSW 16:35:40 48° ESE 16:39:24 11° NE
COBE Rocket 3.9 16:32:52 10° NNE 16:37:39 57° E 16:42:17 10° S
USA 215 4.0 16:34:13 11° E 16:39:49 35° NNE 16:45:38 10° NW
Envisat 3.1 16:37:17 10° SE 16:42:11 51° ENE 16:47:06 10° N
Cosmos 1725 Rocket 4.4 16:36:38 10° NNW 16:42:56 69° W 16:49:11 10° S
Cosmos 1697 Rocket 4.1 16:40:00 10° SE 16:43:25 17° E 16:45:07 15° ENE
USA 229 DEB 4.0 16:37:38 10° S 16:43:45 44° ESE 16:49:59 11° NE
USA 229 4.0 16:37:48 10° S 16:43:52 44° ESE 16:50:02 11° NE
NOSS 3-1 (A) 4.3 16:45:01 10° SSE 16:49:21 25° ESE 16:52:23 17° ENE
NOSS 3-1 (C) 3.7 16:46:05 10° S 16:51:08 41° ESE 16:55:55 14° NE
ATLAS 5 CENTAUR R/B 2.7 16:49:03 10° NNW 16:54:29 43° NE 17:00:31 11° ESE
CZ-4 R/B 1.8 16:54:13 10° SE 16:58:10 42° ENE 17:02:05 10° N
Meteor 2-20 4.4 16:52:14 10° S 16:58:16 67° E 17:04:21 10° NNE
Cosmos 1500 Rocket 4.0 16:54:29 10° NNW 16:58:51 64° W 17:03:08 10° S
Cosmos 1633 Rocket 3.9 17:01:41 10° NNE 17:05:30 28° ENE 17:08:05 17° ESE
COSMO-SKYMED 1 2.5 17:04:31 10° NNE 17:08:51 65° ESE 17:13:09 10° S
SeaSat 1 2.9 17:04:17 10° SSE 17:09:10 64° WSW 17:14:05 10° NNW
Cosmos 1869 3.1 17:06:01 10° S 17:09:58 77° E 17:13:56 10° NNE
Cosmos 1666 Rocket 3.9 17:10:06 10° N 17:14:17 41° ENE 17:18:24 10° SSE
Cosmos 1607 3.9 17:08:15 10° NNW 17:14:26 64° NE 17:20:39 10° SE
Cosmos 1680 Rocket 4.4 17:10:16 10° SSE 17:14:24 25° E 17:14:24 25° E
Cosmos 1867 4.3 17:12:13 10° SW 17:17:33 53° NW 17:22:42 11° NNE
Cosmos 1939 Rocket 4.1 17:19:06 26° NE 17:19:06 26° NE 17:21:34 10° N
BREEZE-M DEB (TANK) 4.5 17:16:06 10° WSW 17:20:28 83° NNW 17:30:37 20° ENE
CSL-04 Debris 4.1 17:15:28 10° SSE 17:20:52 63° ENE 17:26:19 10° N
Sich 1 2.9 17:19:00 10° N 17:23:20 72° E 17:27:41 10° SSE
Cosmos 2219 3.3 17:18:33 10° NNW 17:24:11 76° WSW 17:29:46 10° SSE
Ariane Rocket 3.6 17:25:09 32° ENE 17:25:11 32° ENE 17:29:41 10° N
Cosmos 1656 3.6 17:21:08 10° SSW 17:26:39 66° ESE 17:30:21 21° NE
Cosmos 2034 Rocket 4.1 17:20:55 10° N 17:27:04 50° ENE 17:33:13 10° SSE
Cosmos 1513 Rocket 4.5 17:21:12 10° N 17:27:38 69° E 17:33:57 10° SSE
Cosmos 2084 3.5 17:29:01 10° NW 17:33:18 75° SW 17:35:48 23° SSE
FengYun 1-2 T 4.4 17:28:46 10° S 17:34:18 74° WSW 17:39:50 10° NNW
Okean-O 4.4 17:31:25 10° SSW 17:35:27 34° W 17:39:31 10° NNW
Cosmos 923 Rocket 4.0 17:32:36 10° S 17:37:40 54° ESE 17:39:04 41° ENE
YAOGAN 1 2.4 17:33:27 10° SSE 17:37:47 89° ENE 17:42:08 10° NNW
CSL-04 Rocket 3.6 17:37:17 10° SSE 17:42:41 87° WSW 17:48:03 10° NNW
ERBS 3.9 17:41:19 10° SSW 17:42:58 25° S 17:42:58 25° S
Tsikada Rocket 4.2 17:38:38 10° SSE 17:44:38 47° E 17:50:44 10° NNE
Cosmos 1980 Rocket 3.7 17:40:55 10° SSE 17:43:05 20° SE 17:43:05 20° SE
Cosmos 2227 Rocket 2.2 17:42:26 10° NNW 17:48:08 80° WSW 17:53:46 10° SSE
Cosmos 2297 Rocket 2.3 17:43:07 10° NNW 17:48:47 74° WSW 17:54:24 10° SSE
Cosmos 1633 2.9 17:48:15 10° NNW 17:51:53 65° W 17:52:46 46° SSW
Meteor 2-11 Rocket 4.3 17:47:34 10° N 17:53:42 75° E 17:59:48 10° SSE
IRS-1A Rocket 4.3 17:54:55 55° ENE 17:55:01 55° ENE 18:00:33 10° N
Cosmos 1816 Rocket 4.4 17:50:41 10° S 17:56:53 62° E 18:03:10 10° NNE
Cosmos 1862 3.5 17:54:03 10° NNW 17:57:45 69° WNW 17:57:45 69° WNW
Cosmos 2369 3.5 17:53:40 10° SSW 17:59:17 75° ESE 18:00:29 56° NE
Lacrosse 4 Rocket 2.6 18:07:41 10° SSW 18:10:04 34° SSW 18:10:04 34° SSW
Cosmos 2082 3.7 18:08:00 10° NNW 18:13:39 80° WSW 18:14:50 57° S
Cosmos 2263 Rocket 4.2 18:12:15 10° N 18:13:29 15° N 18:13:29 15° N
BREEZE-M DEB (TANK) 3.7 18:14:31 10° WSW 18:17:34 36° WSW 18:17:34 36° WSW
Cosmos 2278 3.8 18:14:37 10° SSW 18:19:26 65° S 18:19:26 65° S
USA 215 3.1 18:21:35 71° E 18:22:17 79° NE 18:28:52 10° NW
Cosmos 1697 Rocket 2.8 18:21:04 10° SSW 18:26:42 73° WNW 18:26:55 72° NW
BREEZE-M DEB (TANK) 4.4 18:25:20 10° WNW 18:28:16 24° NW 18:28:16 24° NW
CZ-4 R/B 4.3 18:30:34 10° SW 18:33:21 17° W 18:36:08 10° NW
ATLAS 5 CENTAUR R/B 3.5 18:33:40 10° NW 18:39:16 42° WSW 18:42:11 28° SSW
NOSS 3-1 (A) 3.7 18:34:09 10° SW 18:39:37 57° NW 18:39:52 57° NW
NOSS 3-1 (C) 4.4 18:36:41 10° WSW 18:41:57 39° NW 18:43:21 34° N
